[TLELIST] Archives

 

[TLELIST] Current TLEs

March 17th 2025 PST

HST 1 20580U 90037B 25076.01486044 .00012413 00000-0 49355-3 0 9991 2 20580 28.4686 309.0885 0002028 132.5217 227.5548 15.23708135718865 ISS (ZARYA) 1 25544U 98067A 25076.17748099 .00024772 00000-0 43866-3 0 9997 2 25544 51.6367 42.7442 0006413 30.4936 329.6424 15.50114121500895 CXO 1 25867U 99040B 25076.88324346 .00000984 00000-0 00000-0 0 9999 2 25867 47.4433 134.3488 8555282 307.7875 0.4564 0.37810205 15605 ...Continue Reading

[TLELIST] Current TLEs

March 16th 2025 PST

HST 1 20580U 90037B 25074.90138695 .00013783 00000-0 54931-3 0 9990 2 20580 28.4689 316.6168 0002066 120.8955 239.1843 15.23680982718436 ISS (ZARYA) 1 25544U 98067A 25075.42927414 .00016983 00000-0 30403-3 0 9992 2 25544 51.6369 46.4497 0006687 30.3362 111.7801 15.50067173500773 CXO 1 25867U 99040B 25076.88324346 .00000984 00000-0 00000-0 0 9999 2 25867 47.4433 134.3488 8555282 307.7875 0.4564 0.37810205 15605 ...Continue Reading

[TLELIST] Current TLEs

March 15th 2025 PST

HST 1 20580U 90037B 25073.91889345 .00013338 00000-0 53177-3 0 9992 2 20580 28.4685 323.2621 0002147 109.6138 250.4688 15.23653208718285 ISS (ZARYA) 1 25544U 98067A 25074.17888493 .00016842 00000-0 30206-3 0 9991 2 25544 51.6358 52.6470 0006442 23.0781 337.0496 15.50021799500580 CXO 1 25867U 99040B 25074.23886041 .00000935 00000-0 00000-0 0 9997 2 25867 47.4145 134.4462 8560507 307.7631 0.4342 0.37810972 15586 ...Continue Reading

[TLELIST] Current TLEs

March 15th 2025 PST

HST 1 20580U 90037B 25073.91889345 .00013338 00000-0 53177-3 0 9992 2 20580 28.4685 323.2621 0002147 109.6138 250.4688 15.23653208718285 ISS (ZARYA) 1 25544U 98067A 25074.17888493 .00016842 00000-0 30206-3 0 9991 2 25544 51.6358 52.6470 0006442 23.0781 337.0496 15.50021799500580 CXO 1 25867U 99040B 25074.23886041 .00000935 00000-0 00000-0 0 9997 2 25867 47.4145 134.4462 8560507 307.7631 0.4342 0.37810972 15586 ...Continue Reading

[TLELIST] Current TLEs

March 14th 2025 PST

HST 1 20580U 90037B 25072.87088056 .00012504 00000-0 49847-3 0 9999 2 20580 28.4686 330.3478 0002195 99.4189 260.6653 15.23622828718122 ISS (ZARYA) 1 25544U 98067A 25073.14731082 .00017389 00000-0 31200-3 0 9990 2 25544 51.6356 57.7581 0006471 19.1433 340.9798 15.49984547500427 CXO 1 25867U 99040B 25074.23886041 .00000935 00000-0 00000-0 0 9997 2 25867 47.4145 134.4462 8560507 307.7631 0.4342 0.37810972 15586 ...Continue Reading

[TLELIST] Current TLEs

March 14th 2025 PST

HST 1 20580U 90037B 25072.87088056 .00012504 00000-0 49847-3 0 9999 2 20580 28.4686 330.3478 0002195 99.4189 260.6653 15.23622828718122 ISS (ZARYA) 1 25544U 98067A 25073.14731082 .00017389 00000-0 31200-3 0 9990 2 25544 51.6356 57.7581 0006471 19.1433 340.9798 15.49984547500427 CXO 1 25867U 99040B 25074.23886041 .00000935 00000-0 00000-0 0 9997 2 25867 47.4145 134.4462 8560507 307.7631 0.4342 0.37810972 15586 ...Continue Reading

[TLELIST] Current TLEs

March 13th 2025 PST

HST 1 20580U 90037B 25071.75734394 .00011232 00000-0 44744-3 0 9996 2 20580 28.4691 337.8747 0002213 89.7776 270.3071 15.23590476717959 ISS (ZARYA) 1 25544U 98067A 25072.18018688 .00018976 00000-0 34009-3 0 9996 2 25544 51.6353 62.5500 0006422 15.6574 344.4612 15.49949950500278 CXO 1 25867U 99040B 25074.23886041 .00000935 00000-0 00000-0 0 9997 2 25867 47.4145 134.4462 8560507 307.7631 0.4342 0.37810972 15586 ...Continue Reading

[TLELIST] Current TLEs

March 12th 2025 PST

HST 1 20580U 90037B 25071.16781464 .00011821 00000-0 47149-3 0 9997 2 20580 28.4692 341.8603 0002197 83.6816 276.4028 15.23578003718126 ISS (ZARYA) 1 25544U 98067A 25071.34199439 .00013876 00000-0 25129-3 0 9994 2 25544 51.6352 66.7028 0006423 12.5650 347.5498 15.49917383500147 CXO 1 25867U 99040B 25071.59384992 .00000942 00000-0 00000+0 0 9998 2 25867 47.3636 134.5734 8566439 307.7117 0.3660 0.37809100 26734 ...Continue Reading

[TLELIST] Current TLEs

March 11th 2025 PST

HST 1 20580U 90037B 25069.85773266 .00009524 00000-0 37869-3 0 9996 2 20580 28.4694 350.7170 0002171 69.6410 290.4417 15.23547573717666 ISS (ZARYA) 1 25544U 98067A 25070.33428170 .00014805 00000-0 26777-3 0 9992 2 25544 51.6365 71.6941 0006390 9.7460 123.9698 15.49894071499985 CXO 1 25867U 99040B 25071.59384992 .00000942 00000-0 00000+0 0 9998 2 25867 47.3636 134.5734 8566439 307.7117 0.3660 0.37809100 26734 ...Continue Reading

[TLELIST] Current TLEs

March 10th 2025 PST

HST 1 20580U 90037B 25068.87515437 .00010959 00000-0 43718-3 0 9995 2 20580 28.4695 357.3585 0002159 60.5953 299.4856 15.23529329717517 ISS (ZARYA) 1 25544U 98067A 25069.36829310 .00013854 00000-0 25135-3 0 9994 2 25544 51.6377 76.4770 0006719 6.4623 133.8926 15.49866033499836 CXO 1 25867U 99040B 25071.59384992 .00000942 00000-0 00000+0 0 9998 2 25867 47.3636 134.5734 8566439 307.7117 0.3660 0.37809100 26734 ...Continue Reading
  • This mailing list is a public mailing list - anyone may join or leave, at any time.
  • This mailing list is announce-only.

International Space Station (ISS) / Hubble Space Telescope (HST) / Chandra X-Ray Observatory Orbital Data via EMAIL

Privacy Policy:

Private list